Stations météo

réclame
Mon MeteoGroup
Vilhelmina, Suède (2245): Température de l'air & dewpoint: 17.04.2018 03:00:00 - 23.04.2018 03:00:00 (CEST)Vilhelmina, Suède (2245): Vitesse du vent & gusts: 17.04.2018 03:00:00 - 23.04.2018 03:00:00 (CEST)Vilhelmina, Suède (2245): Direction du vent: 17.04.2018 03:00:00 - 23.04.2018 03:00:00 (CEST)Vilhelmina, Suède (2245): reduced air pressure: 17.04.2018 03:00:00 - 23.04.2018 03:00:00 (CEST)Vilhelmina, Suède (2245): visibility: 17.04.2018 03:00:00 - 23.04.2018 03:00:00 (CEST)Vilhelmina, Suède (2245): Quantités de précipitations: 17.04.2018 03:00:00 - 23.04.2018 03:00:00 (CEST)
Date & Time tt [°C] td [°C] ff [km/h] ff [knt] fx [km/h] fx [knt] dd ppp [hPa] vv [km] rr [mm]
23.04.2018 03:00:00 2,9 0,1 13 7 16 9 E 1010,9 10 0,0
23.04.2018 02:00:00 3,0 0,1 11 6 14 8 E 1011,5 10 0,0
23.04.2018 01:00:00 2,3 -0,3 4 2 8 5 - 1012,3 10 0,0
23.04.2018 00:00:00 1,2 -0,7 0 0 6 3 N 1012,7 10 0,0
22.04.2018 23:00:00 1,3 -0,8 0 0 3 2 N 1013,0 10 0,0
22.04.2018 22:00:00 2,1 -0,8 0 0 3 2 N 1013,1 10 0,0
22.04.2018 21:00:00 3,2 -0,6 0 0 4 2 N 1013,0 10 0,0
22.04.2018 20:00:00 5,7 0,3 4 2 6 4 S 1012,6 50 0,0
22.04.2018 19:00:00 7,9 -0,6 5 3 6 4 SSW 1012,3 10 0,0
22.04.2018 18:00:00 7,6 0,6 3 2 4 2 ESE 1012,5 50 0,0
22.04.2018 17:00:00 8,3 -0,2 3 2 9 5 NNE 1012,6 50 0,0
22.04.2018 16:00:00 8,2 -0,6 8 4 14 7 W 1012,9 10 0,0
22.04.2018 15:00:00 8,0 -0,5 5 3 13 7 - 1013,0 10 0,0
22.04.2018 14:00:00 7,9 -0,6 9 5 21 11 W 1013,2 10 0,0
22.04.2018 13:00:00 7,7 0,0 11 6 17 9 W 1013,3 10 0,0
22.04.2018 12:00:00 7,2 0,4 9 5 16 9 W 1013,1 10 0,0
22.04.2018 11:00:00 7,1 0,7 9 5 16 9 W 1012,9 10 0,0
22.04.2018 10:00:00 5,8 1,1 11 6 16 9 W 1013,0 10 0,0
22.04.2018 09:00:00 4,7 1,0 9 5 14 8 W 1012,8 10 0,0
22.04.2018 08:00:00 3,5 0,9 7 4 13 7 WNW 1012,7 50 0,0
22.04.2018 07:00:00 2,6 0,8 5 3 9 5 W 1012,1 50 0,0
22.04.2018 06:00:00 1,8 0,6 4 2 9 5 WSW 1011,3 10 0,0
22.04.2018 05:00:00 2,1 0,8 10 5 14 7 W 1011,0 50 0,0
22.04.2018 04:00:00 2,2 0,6 8 4 12 7 W 1010,3 10 0,0
22.04.2018 03:00:00 2,6 0,8 9 5 17 9 W 1009,6 10 0,0
22.04.2018 02:00:00 3,0 0,7 9 5 16 9 WNW 1008,8 10 0,0
22.04.2018 01:00:00 2,7 0,6 9 5 15 8 W 1008,1 10 0,0
22.04.2018 00:00:00 2,7 0,6 5 3 19 11 WNW 1007,1 10 0,0
21.04.2018 23:00:00 2,8 0,5 11 6 19 11 WNW 1006,1 10 0,0
21.04.2018 22:00:00 3,1 0,8 11 6 18 10 W 1005,5 10 0,0
21.04.2018 21:00:00 3,0 0,7 15 8 29 15 W 1004,9 10 0,0
21.04.2018 20:00:00 3,8 0,8 21 11 32 18 W 1004,1 50 0,3
21.04.2018 19:00:00 4,0 1,2 24 13 37 20 W 1003,7 10 0,0
21.04.2018 18:00:00 5,3 0,1 22 12 33 18 W 1002,8 10 0,0
21.04.2018 17:00:00 5,4 0,0 21 11 39 21 W 1002,4 50 0,0
21.04.2018 16:00:00 5,6 0,4 26 14 42 23 W 1002,2 10 0,0
21.04.2018 15:00:00 6,3 0,2 18 10 43 23 W 1001,7 10 0,0
21.04.2018 14:00:00 6,1 0,0 24 13 36 19 W 1001,5 10 0,0
21.04.2018 13:00:00 4,8 0,2 18 10 34 18 W 1001,6 10 0,0
21.04.2018 12:00:00 4,9 0,1 21 11 36 20 W 1001,3 10 0,0
21.04.2018 11:00:00 4,7 0,1 16 9 29 16 W 1000,8 10 0,0
21.04.2018 10:00:00 4,2 0,0 18 10 32 17 W 1000,3 10 0,0
21.04.2018 09:00:00 4,1 0,3 18 10 29 15 W 1000,0 10 0,0
21.04.2018 08:00:00 3,8 0,3 19 10 31 17 W 1000,0 50 0,0
21.04.2018 07:00:00 3,2 0,9 9 5 16 9 SW 1000,0 10 0,0
21.04.2018 06:00:00 2,9 1,1 9 5 16 9 SW 1000,4 10 0,0
21.04.2018 05:00:00 2,7 1,2 7 4 15 8 WSW 1000,9 50 0,0
21.04.2018 04:00:00 3,1 1,3 8 4 15 8 WSW 1001,5 10 0,0
21.04.2018 03:00:00 3,7 1,1 8 4 16 8 WSW 1002,0 50 0,0
21.04.2018 02:00:00 3,8 1,0 13 7 18 10 W 1002,7 10 0,0
21.04.2018 01:00:00 2,3 0,7 8 4 12 6 W 1003,7 10 0,0
21.04.2018 00:00:00 3,3 1,2 11 6 18 10 W 1003,8 10 0,0
20.04.2018 23:00:00 2,9 1,4 5 3 11 6 WSW 1004,1 10 0,0
20.04.2018 22:00:00 2,2 0,1 4 2 16 8 - 1005,3 10 0,0
20.04.2018 21:00:00 4,9 1,4 2 1 16 8 - 1005,8 10 0,0
20.04.2018 20:00:00 6,4 1,1 4 2 16 9 WSW 1006,1 50 0,0
20.04.2018 19:00:00 8,0 1,2 15 8 24 13 WSW 1006,8 10 0,0
20.04.2018 18:00:00 8,0 1,4 7 4 15 8 W 1007,8 50 0,0
20.04.2018 17:00:00 8,1 1,7 8 4 17 9 W 1008,7 50 0,0
20.04.2018 16:00:00 8,2 1,6 8 5 22 12 WNW 1009,9 50 0,0
20.04.2018 15:00:00 8,3 1,2 13 7 23 13 W 1011,0 10 0,0
20.04.2018 14:00:00 8,3 1,7 13 7 24 13 W 1011,6 10 0,0
20.04.2018 13:00:00 8,3 1,9 18 10 31 17 W 1012,1 10 0,0
20.04.2018 12:00:00 9,1 2,0 16 9 29 16 WNW 1012,2 10 0,0
20.04.2018 11:00:00 8,9 1,8 18 10 31 17 W 1012,5 10 0,0
20.04.2018 10:00:00 8,2 2,4 13 7 28 15 WNW 1012,9 10 0,0
20.04.2018 09:00:00 7,2 3,6 15 8 21 12 W 1013,5 10 0,0
20.04.2018 08:00:00 6,6 3,6 10 5 16 9 W 1014,0 50 0,0
20.04.2018 07:00:00 4,0 2,7 5 3 8 5 WSW 1014,3 10 0,0
20.04.2018 06:00:00 1,9 1,0 0 0 5 3 N 1015,0 10 0,0
20.04.2018 05:00:00 2,9 1,1 0 0 12 7 N 1015,6 50 0,0
20.04.2018 04:00:00 4,9 1,7 5 3 14 8 SW 1016,0 10 0,0
20.04.2018 03:00:00 5,2 1,9 8 4 14 7 SW 1016,5 10 0,0
20.04.2018 02:00:00 5,0 1,8 8 5 15 8 W 1017,3 50 0,0
20.04.2018 01:00:00 6,4 2,3 0 0 10 6 N 1017,9 50 0,0
20.04.2018 00:00:00 6,0 2,3 5 3 11 6 ESE 1018,4 10 0,0
19.04.2018 23:00:00 2,8 1,0 0 0 6 3 N 1020,2 48 0,0
19.04.2018 22:00:00 3,0 1,8 0 0 9 5 N 1020,9 10 0,0
19.04.2018 21:00:00 6,6 1,7 5 3 10 5 SSW 1020,9 43 0,0
19.04.2018 20:00:00 7,0 1,5 6 3 8 4 SW 1021,6 50 0,0
19.04.2018 19:00:00 8,1 1,3 5 3 16 9 SSW 1022,0 10 0,0
19.04.2018 18:00:00 9,6 1,2 9 5 17 9 SW 1022,5 10 0,0
19.04.2018 17:00:00 10,5 1,1 13 7 18 10 W 1023,0 10 0,0
19.04.2018 16:00:00 11,2 0,6 9 5 15 8 W 1023,5 10 0,0
19.04.2018 15:00:00 11,8 0,8 9 5 16 9 W 1023,8 10 0,0
19.04.2018 14:00:00 10,9 0,6 11 6 18 10 W 1024,6 10 0,0
19.04.2018 13:00:00 10,2 1,3 15 8 22 12 W 1025,0 10 0,0
19.04.2018 12:00:00 9,6 1,5 11 6 24 13 W 1024,9 10 0,0
19.04.2018 11:00:00 9,2 2,1 16 9 27 15 W 1025,1 10 0,0
19.04.2018 10:00:00 8,6 2,2 11 6 26 14 W 1025,1 10 0,0
19.04.2018 09:00:00 7,2 2,1 13 7 19 10 W 1025,2 10 0,0
19.04.2018 08:00:00 5,2 1,7 13 7 21 11 W 1025,2 50 0,0
19.04.2018 07:00:00 3,1 1,1 2 1 11 6 - 1025,0 10 0,0
19.04.2018 06:00:00 1,5 0,6 11 6 13 7 W 1025,2 10 0,0
19.04.2018 05:00:00 2,7 1,4 8 4 18 10 WNW 1024,6 50 0,0
19.04.2018 04:00:00 3,3 1,3 11 6 21 11 WNW 1024,2 50 0,0
19.04.2018 03:00:00 3,0 1,2 11 6 16 9 WNW 1023,8 10 0,0
19.04.2018 02:00:00 0,2 0,1 4 2 13 7 - 1023,6 10 0,0
19.04.2018 01:00:00 2,1 0,3 8 4 15 8 WNW 1023,2 10 0,0
19.04.2018 00:00:00 2,7 0,8 9 5 16 8 WNW 1022,6 10 0,0
18.04.2018 23:00:00 3,0 1,0 13 7 19 10 W 1022,3 10 0,0
18.04.2018 22:00:00 3,8 1,5 16 9 23 12 W 1021,5 10 0,0
18.04.2018 21:00:00 4,1 1,6 16 9 20 11 W 1020,7 10 0,0
18.04.2018 20:00:00 4,8 1,8 15 8 22 12 W 1020,3 10 0,0
18.04.2018 19:00:00 5,1 1,8 13 7 19 10 W 1019,8 10 0,0
18.04.2018 18:00:00 5,0 2,0 8 4 16 9 SSW 1019,7 10 0,0
18.04.2018 17:00:00 5,4 2,7 11 6 19 10 SSW 1019,3 10 0,0
18.04.2018 16:00:00 6,5 2,9 9 5 14 7 SSW 1018,7 10 0,0
18.04.2018 15:00:00 7,6 2,1 4 2 8 4 - 1018,3 10 0,0
18.04.2018 14:00:00 6,0 2,1 8 4 12 6 SSW 1018,7 10 0,0
18.04.2018 13:00:00 6,0 0,3 11 6 21 11 SSW 1018,4 10 0,0
18.04.2018 12:00:00 7,8 -1,2 9 5 15 8 SSW 1017,6 10 0,0
18.04.2018 11:00:00 8,7 -2,0 0 0 11 6 N 1017,0 10 0,0
18.04.2018 10:00:00 7,4 -2,3 5 3 9 5 E 1017,0 10 0,0
18.04.2018 09:00:00 4,8 -2,8 8 4 10 5 E 1017,6 10 0,0
18.04.2018 08:00:00 2,2 -3,1 2 1 6 3 E 1018,1 10 0,0
18.04.2018 07:00:00 -1,8 -4,8 0 0 6 3 N 1018,9 10 0,0
18.04.2018 06:00:00 -5,1 -6,2 0 0 3 2 N 1019,3 10 0,0
18.04.2018 05:00:00 -6,2 -7,0 5 3 6 4 ESE 1019,7 10 0,0
18.04.2018 04:00:00 -5,0 -6,0 8 4 7 4 ESE 1019,8 10 0,0
18.04.2018 03:00:00 -4,8 -5,8 0 0 6 3 N 1020,1 10 0,0
18.04.2018 02:00:00 -3,9 -5,3 5 3 6 3 ESE 1020,0 10 0,0
18.04.2018 01:00:00 -3,6 -5,3 4 2 5 3 E 1020,3 10 0,0
18.04.2018 00:00:00 -3,1 -5,0 0 0 5 3 N 1020,0 10 0,0
17.04.2018 23:00:00 -1,8 -3,8 0 0 5 3 N 1019,9 10 0,0
17.04.2018 22:00:00 -0,6 -3,3 0 0 3 2 N 1019,5 10 0,0
17.04.2018 21:00:00 1,8 -3,7 4 2 4 2 ESE 1019,0 10 0,0
17.04.2018 20:00:00 6,4 -3,5 5 3 9 5 ESE 1017,9 10 0,0
17.04.2018 19:00:00 9,4 -3,5 5 3 9 5 SE 1017,0 10 0,0
17.04.2018 18:00:00 12,4 -4,7 5 3 12 6 NE 1016,5 10 0,0
17.04.2018 17:00:00 12,6 -5,0 4 2 11 6 - 1016,5 10 0,0
17.04.2018 16:00:00 12,4 -5,6 4 2 16 9 - 1016,5 10 0,0
17.04.2018 15:00:00 10,9 -5,6 0 0 16 8 N 1016,6 10 0,0
17.04.2018 14:00:00 11,9 -5,6 4 2 13 7 NE 1016,5 46 0,0
17.04.2018 13:00:00 11,5 -5,9 4 2 13 7 - 1016,6 10 0,0
17.04.2018 12:00:00 10,0 -3,0 11 6 13 7 WSW 1016,9 10 0,0
17.04.2018 11:00:00 7,4 -3,8 8 4 10 6 W 1017,3 10 0,0
17.04.2018 10:00:00 3,7 -3,6 8 4 11 6 W 1017,8 10 0,0
17.04.2018 09:00:00 1,5 -4,0 4 2 7 4 - 1017,8 10 0,0
17.04.2018 08:00:00 -1,5 -5,5 0 0 5 3 N 1017,7 10 0,0
17.04.2018 07:00:00 -2,5 -5,6 0 0 5 3 N 1017,3 10 0,0
17.04.2018 06:00:00 -4,0 -5,4 0 0 3 2 N 1017,3 10 0,0
17.04.2018 05:00:00 -4,3 -5,4 4 2 6 3 - 1017,0 10 0,0
17.04.2018 04:00:00 -3,7 -5,1 0 0 5 3 N 1016,8 10 0,0
17.04.2018 03:00:00 -1,6 -3,9 0 0 8 4 N 1016,4 10 0,0

tt = Température de l'air
td = dewpoint
ff = Vitesse du vent
fx = gusts
dd = Direction du vent
ppp = reduced air pressure
vv = visibility
rr = Quantités de précipitations

stations d'obs. à proximité